Flag for Mozambique Weather past 2 weeks in Maputo, Mozambique

Now
68 °F

Clear.


Feels Like: 68 °F
Forecast: 68 / 88 °F
Wind: 3 mph from North

Location: Maputo / Mavalane


UV Index: 5 (Moderate)

Visibility: 10 mi


Pressure: 30.04 "Hg

Humidity: 94%

Dew point: 66 °F

Location of MaputoLocation

Historic Weather in Maputo

°F

Maputo temperature yesterday

Maximum temperature yesterday: 88 °F (at 1:00 PM)
Minimum temperature yesterday: 66 °F (at 5:00 AM)
Average temperature yesterday: 77 °F

Past Weeks' High & Low Weather Summary

 TemperatureHumidityPressure
High91 °F (Apr 15, 2:00 PM)94% (Apr 10, 4:00 AM)30.30 "Hg (Apr 10, 4:00 AM)
Low61 °F (Apr 17, 5:00 AM)43% (Apr 14, 3:00 PM)29.92 "Hg (Apr 15, 3:00 AM)
Average74 °F74%30.17 "Hg
* Reported Midnight between Apr 5 and Apr 6 — Midnight between Apr 20 and Apr 21, Maputo, Weather by CustomWeather, © 2014

Note: Actual official high and low records may vary slightly from our data, if they occured in-between our weather recording intervals... More about our weather records

Advertising

Historic Weather Conditions — Data for Previous 24 hours

 ConditionsComfort  
Time TempWeatherWind HumidityBarometerVisibility
12:00 AM
Apr 21
68 °FClear.3 mph94%30.04 "Hg10 mi
11:00 PM
Apr 20
68 °FClear.3 mph94%30.04 "Hg10 mi
10:00 PM72 °FClear.7 mph88%30.04 "Hg10 mi
9:00 PM73 °FClear.9 mph83%30.04 "Hg10 mi
7:00 PM75 °FClear.10 mph83%30.04 "Hg10 mi
6:00 PM75 °FClear.10 mph83%30.04 "Hg10 mi
5:00 PM79 °FClear.12 mph70%30.01 "Hg10 mi
3:00 PM86 °FSunny.10 mph59%30.04 "Hg10 mi
1:00 PM88 °FSunny.3 mph49%30.07 "Hg10 mi
12:00 PM84 °FSunny.7 mph58%30.09 "Hg10 mi
11:00 AM82 °FPassing clouds.8 mph62%30.12 "HgN/A
10:00 AM79 °FPassing clouds.10 mph70%30.15 "HgN/A
9:00 AM75 °FPassing clouds.8 mph74%30.15 "HgN/A
8:00 AM72 °FPassing clouds.7 mph88%30.15 "HgN/A
7:00 AM66 °FFog.3 mph94%30.15 "Hg6 mi
6:00 AM84 °FFog.3 mph51%30.15 "Hg5 mi
5:00 AM66 °FFog.2 mph94%30.15 "Hg6 mi
Weather by CustomWeather, © 2014

See weather overview